{"data":{"norad_id":48217,"intl_designator":"2021-031H","name":"ONEWEB-0189","alt_names":[],"object_type":"PAYLOAD","status":"ACTIVE","operator":null,"country":"UK","launch_date":"2021-04-25","launch_site_code":"VOSTO","launch_vehicle":null,"mission":null,"orbit_class":"UNKNOWN","rcs_meters":null,"size_class":null,"mass_kg":null,"dimensions":null,"purposes":["comms"],"wikipedia_slug":null,"has_3d_model":false,"image_url":null,"decayed_at":null,"tle_current":{"epoch":"2026-05-25T04:12:48.306240Z","epoch_age_seconds":53756,"freshness":"FRESH","line1":"1 48217U 21031H   26145.17555910  .00000250  00000+0  64082-3 0  9999","line2":"2 48217  87.8946 294.2865 0001561 106.0528 254.0774 13.14501697245206","mean_motion":13.14501697,"eccentricity":0.0001561,"inclination_deg":87.8946,"raan_deg":294.2865,"arg_perigee_deg":106.0528,"mean_anomaly_deg":254.0774,"bstar":0.00064082,"rev_number":24520,"period_min":109.54721498545,"perigee_km":1204.6107453762,"apogee_km":1206.9784488208,"semimajor_km":7583.9315970985,"source":"CELESTRAK","updated_at":"2026-05-25T13:38:22.432738Z"}}}